This demonstration page uses our WeatherBlox Daily Observations layout. Learn more.

Left ArrowRight Arrow

40.92945, -100.16068

Hourly Observations for October 9, 2020

Temp ( °F °C ) Dew Point ( °F °C ) Humidity (%) Winds ( mph kmh ) Pressure ( in mb ) Visibility ( mi km ) Precip ( " mm )
12:15 am 00:15 Clear 67 19.4 52 10.9 58 58 SSE 9 15 29.75 1007 10 16 N/A
12:35 am 00:35 Clear 67 19.2 52 10.9 59 59 SSE 8 13 29.75 1007 10 16 N/A
12:55 am 00:55 Clear 65 18.6 52 11 61 61 S 9 15 29.74 1007 10 16 N/A
1:15 am 01:15 Clear 65 18.5 52 11 62 62 S 10 17 29.75 1007 10 16 N/A
1:35 am 01:35 Clear 65 18.6 52 11 61 61 S 12 19 29.73 1007 10 16 N/A
1:55 am 01:55 Clear 65 18.5 52 11 62 62 S 10 17 29.74 1007 10 16 N/A
2:15 am 02:15 Clear 65 18.2 52 10.9 63 63 SSE 12 19 29.73 1007 10 16 N/A
2:35 am 02:35 Clear 64 17.8 51 10.7 63 63 SSE 9 15 29.72 1006 10 16 N/A
2:55 am 02:55 Clear 64 17.6 51 10.5 63 63 SSE 7 11 29.72 1007 10 16 N/A
3:15 am 03:15 Clear 63 17 50 10.1 64 64 SSE 6 9 29.73 1007 10 16 N/A
3:35 am 03:35 Clear 62 16.6 50 9.9 65 65 SSE 6 9 29.72 1007 10 16 N/A
3:55 am 03:55 Clear 61 16.2 49 9.6 65 65 ESE 3 6 29.73 1007 10 16 N/A
4:15 am 04:15 Clear 62 16.7 48 9.1 61 61 SSE 6 9 29.72 1006 10 16 N/A
4:35 am 04:35 Clear 62 16.4 48 8.7 61 61 SE 6 9 29.71 1006 10 16 N/A
4:55 am 04:55 Clear 62 16.5 47 8.4 59 59 S 8 13 29.71 1006 10 16 N/A
5:15 am 05:15 Clear 58 14.7 47 8.3 66 66 SE 5 7 29.74 1007 10 16 N/A
5:35 am 05:35 Clear 58 14.4 46 8 66 66 SSE 9 15 29.73 1007 10 16 N/A
5:55 am 05:55 Clear 57 13.7 46 7.5 66 66 SSE 8 13 29.74 1007 10 16 N/A
6:15 am 06:15 Clear 57 13.8 46 7.5 66 66 SSE 10 17 29.73 1007 10 16 N/A
6:35 am 06:35 Clear 56 13.3 46 7.5 68 68 S 5 7 29.74 1007 10 16 N/A
6:55 am 06:55 Clear 55 12.5 45 7.4 71 71 S 5 7 29.75 1007 10 16 N/A
7:15 am 07:15 Clear 53 11.5 44 6.6 72 72 S 7 11 29.77 1008 10 16 N/A
7:35 am 07:35 Clear 52 10.9 43 6.3 73 73 N N/A 29.77 1008 10 16 N/A
7:55 am 07:55 Sunny 49 9.6 43 5.9 78 78 N N/A 29.78 1009 10 16 N/A
8:15 am 08:15 Sunny 50 10 43 6.1 77 77 S 3 6 29.78 1009 10 16 N/A
8:35 am 08:35 Sunny 52 11 43 6.3 73 73 N N/A 29.77 1008 10 16 N/A
8:55 am 08:55 Hazy 53 11.5 45 7.2 75 75 N N/A 29.77 1008 5 8 N/A
9:15 am 09:15 Sunny 56 13.6 46 7.7 68 68 N N/A 29.75 1007 7 11 N/A
9:35 am 09:35 Sunny 62 16.4 44 6.7 53 53 SW 6 9 29.73 1007 10 16 N/A
9:55 am 09:55 Sunny 63 17.1 44 6.9 51 51 W 7 11 29.74 1007 10 16 N/A
10:15 am 10:15 Sunny 65 18.2 43 5.9 45 45 W 6 9 29.73 1007 10 16 N/A
10:35 am 10:35 Sunny 66 18.9 43 5.9 43 43 WSW 5 7 29.71 1006 10 16 N/A
10:55 am 10:55 Sunny 68 19.8 43 6 41 41 W 3 6 29.70 1006 10 16 N/A
11:15 am 11:15 Sunny 70 21.1 43 6.3 38 38 SSW 3 6 29.69 1006 10 16 N/A
11:35 am 11:35 Sunny 73 22.7 43 6 34 34 SSW 5 7 29.68 1005 10 16 N/A
11:55 am 11:55 Sunny 75 23.8 42 5.6 31 31 SSW 6 9 29.66 1004 10 16 N/A
12:15 pm 12:15 Sunny 77 24.8 43 6 30 30 N N/A 29.65 1004 10 16 N/A
12:55 pm 12:55 Sunny 81 27 40 4.6 24 24 W 6 9 29.63 1004 10 16 N/A
1:15 pm 13:15 Sunny 82 27.5 38 3.4 21 21 N N/A 29.62 1003 10 16 N/A
1:35 pm 13:35 Sunny 84 28.7 38 3.2 19 19 WNW 3 6 29.62 1003 10 16 N/A
1:55 pm 13:55 Sunny 84 29.1 37 3 19 19 NW 5 7 29.62 1003 10 16 N/A
2:15 pm 14:15 Sunny 85 29.5 38 3.5 19 19 WNW 3 6 29.60 1003 10 16 N/A
2:35 pm 14:35 Sunny 86 29.8 38 3.6 19 19 N N/A 29.59 1002 10 16 N/A
2:55 pm 14:55 Sunny 87 30.5 35 1.4 15 15 SSW 5 7 29.59 1002 10 16 N/A
3:15 pm 15:15 Sunny 87 30.6 32 0.2 14 14 N N/A 29.58 1002 10 16 N/A
3:35 pm 15:35 Sunny 88 30.9 33 0.7 14 14 NW 5 7 29.57 1001 10 16 N/A
3:55 pm 15:55 Sunny 88 31 37 2.6 16 16 NW 3 6 29.57 1001 10 16 N/A
4:15 pm 16:15 Sunny 88 31.2 35 1.5 15 15 N N/A 29.57 1001 10 16 N/A
4:35 pm 16:35 Sunny 89 31.5 32 0.1 13 13 WNW 5 7 29.57 1001 10 16 N/A
4:55 pm 16:55 Sunny 89 31.5 33 0.7 14 14 N N/A 29.57 1001 10 16 N/A
5:15 pm 17:15 Sunny 89 31.6 34 0.9 14 14 N N/A 29.57 1001 10 16 N/A
5:35 pm 17:35 Sunny 89 31.5 34 1.1 14 14 N 3 6 29.57 1001 10 16 N/A
5:55 pm 17:55 Sunny 88 31 37 2.6 16 16 N N/A 29.57 1001 10 16 N/A
6:15 pm 18:15 Sunny 85 29.6 40 4.3 20 20 N N/A 29.59 1002 10 16 N/A
6:35 pm 18:35 Hazy 81 27.1 43 6 26 26 N N/A 29.61 1003 4 6 N/A
6:55 pm 18:55 Sunny 78 25.7 41 5 26 26 N N/A 29.64 1004 7 11 N/A
7:15 pm 19:15 Hazy 72 22.3 47 8.2 41 41 N N/A 29.67 1005 4 6 N/A
7:35 pm 19:35 Clear 72 22 41 5 33 33 N 10 17 29.69 1005 7 11 N/A
7:55 pm 19:55 Mostly Cloudy with Haze 69 20.6 38 3.4 32 32 N 8 13 29.71 1006 2 3 N/A
8:15 pm 20:15 Mostly Cloudy with Haze 67 19.4 36 2.2 32 32 N 8 13 29.73 1007 2 2 N/A
8:35 pm 20:35 Hazy 66 18.9 34 1.3 31 31 NNE 8 13 29.74 1007 5 8 N/A
8:55 pm 20:55 Clear 68 19.9 36 2.4 31 31 NNE 7 11 29.74 1007 10 16 N/A
9:15 pm 21:15 Clear 66 19.1 37 3 34 34 NNE 7 11 29.76 1008 10 16 N/A
9:35 pm 21:35 Clear 64 18 38 3.4 38 38 N 3 6 29.78 1008 10 16 N/A
9:55 pm 21:55 Clear 61 16 38 3.4 43 43 NW 6 9 29.80 1009 10 16 N/A
10:15 pm 22:15 Clear 56 13.3 39 4 54 54 NNW 7 11 29.83 1010 10 16 N/A
10:35 pm 22:35 Clear 56 13.3 39 4 54 54 WNW 6 9 29.84 1011 10 16 N/A
10:55 pm 22:55 Clear 52 11.2 40 4.2 62 62 NW 7 11 29.87 1012 10 16 N/A
11:15 pm 23:15 Clear 51 10.7 38 3.6 62 62 WNW 7 11 29.87 1012 10 16 N/A
11:35 pm 23:35 Clear 51 10.3 39 3.7 64 64 NW 6 9 29.89 1012 10 16 N/A
11:55 pm 23:55 Clear 48 9 39 3.7 70 70 NW 7 11 29.90 1013 10 16 N/A

Powered by AerisWeather